Location: Bodest
(46.3000°N, 22.5667°E)
Time: 15:33:09
(UTC+00:00)

SL-19 R/B - Pass Details

Date: 31 May 2022
Orbit: 874 x 1208 km, 100.6° (Epoch: 03 July)

Event Time Altitude Azimuth Distance (km) Brightness Sun altitude
Rises 19:44:25 0° 8° (N) 4,005 8.4 -12.4°
Reaches altitude 10° 19:47:43 10° 352° (N) 3,084 8.1 -12.7°
Maximum altitude 19:52:28 20° 310° (NW) 2,461 7.7 -13.2°
Drops below altitude 10° 19:57:20 10° 267° (W) 3,149 7.6 -13.7°
Sets 20:00:46 0° 252° (WSW) 4,115 8.0 -14.1°
